Погода в Тунгале

Россия / Амурская область     53°33′00″N   129°26′34″E
темп.,
°C
ветер,
м/с
пор.,
м/с
влажн.,
%
обл.,
%
осадки,
мм/ч
давл.,
гПа
погр.,
м
23 января, сб
сб2300:00−35юв11950 0.0 103119
03:00−36в22980 0.0 103119
06:00−37в22980 0.0 103128
09:00−35в239634 0.0 1030108
12:00−27в3695100 0.3 1024295
15:00−28вюв3595100 0.5 1026286
18:00−25всв1299100 1.0 102088
21:00−26ссз1298100 1.3 102120
24 января, вс
вс2400:00−28сз239452 0.0 102333
03:00−31сз349626 0.0 102678
06:00−31сз229299 0.0 103119
09:00−31ссз129149 0.0 103319
12:00−26сз49820 0.0 1034296
15:00−26сз510790 0.0 1035350
18:00−30сз37890 0.0 1039152
21:00−31ссз228718 0.0 103819
25 января, пн
пн2500:00−33ссз22900 0.0 104222
03:00−33ссз23870 0.0 104428
06:00−34ссз12830 0.0 104419
09:00−31с118461 0.0 104119
12:00−25сз12737 0.0 1043227
15:00−22с017798 0.0 1036229
18:00−24с1189100 0.0 103320
21:00−27ссв1288100 0.0 103619
26 января, вт
вт2600:00−27с1277100 0.0 103519
03:00−24с1174100 0.0 103120
06:00−23ссв1176100 0.0 102620
09:00−21св1175100 0.0 102368
12:00−18вюв41095100 0.5 1019478
15:00−17вюв41094100 0.6 1016536
18:00−19вюв3997100 0.6 1016407
21:00−21вюв2898100 0.9 1015289
27 января, ср
ср2700:00−22в2698100 0.2 1015241
03:00−22в2698100 0.3 1016238
06:00−23св1199100 0.1 101620
09:00−23ююв0199100 0.4 101722
12:00−20з1291100 0.1 1018363
15:00−22ссв1388100 0.2 1018642
18:00−23юв1199100 0.1 101920
21:00−23ссв019999 0.1 102020